ISS (NAUKA)

Last updated on Sun Dec 07 2025 00:02:11 GMT+0000 (Coordinated Universal Time)

1 49044U 21066A 25340.54293258 .00014832 00000+0 27333-3 0 9996 2 49044 51.6299 173.1600 0003550 211.9909 148.0864 15.49366390230447
UTC large
Height (km)
Speed (km/s)
/
Latitude / Longitude
Inclination (degrees)
Orbital Period (minutes)
Azimuth
Elevation
Range (km)
Doppler Factor

Next 0 passes for location: London (51.5072 / 0.1276)

Sorry there are no passes over London.